Stations météo

Publicité
Le Talut, France (7207): Température de l'air & dewpoint: 16.11.2018 12:00:00 - 22.11.2018 12:00:00 (CET)Le Talut, France (7207): Vitesse du vent & gusts: 16.11.2018 12:00:00 - 22.11.2018 12:00:00 (CET)Le Talut, France (7207): Direction du vent: 16.11.2018 12:00:00 - 22.11.2018 12:00:00 (CET)Le Talut, France (7207): reduced air pressure: 16.11.2018 12:00:00 - 22.11.2018 12:00:00 (CET)Le Talut, France (7207): visibility: 16.11.2018 12:00:00 - 22.11.2018 12:00:00 (CET)Le Talut, France (7207): Quantités de précipitations: 16.11.2018 12:00:00 - 22.11.2018 12:00:00 (CET)
Date & Time tt [°C] td [°C] ff [km/h] ff [knt] fx [km/h] fx [knt] dd ppp [hPa] vv [km] rr [mm]
22.11.2018 12:00:00 8,7 7,3 18 10 52 28 E 1012,4 - 0,0
22.11.2018 11:00:00 9,0 7,6 17 9 39 21 E 1012,1 - 0,0
22.11.2018 10:00:00 8,5 7,1 21 11 37 20 E 1011,2 13 0,0
22.11.2018 09:00:00 8,8 6,8 25 13 49 27 E 1010,7 - 0,0
22.11.2018 08:00:00 8,5 7,4 21 12 58 31 E 1010,9 - 1,8
22.11.2018 07:00:00 7,9 6,2 16 9 43 23 E 1011,6 6 0,4
22.11.2018 06:00:00 7,8 5,6 20 11 46 25 ESE 1011,7 - 0,0
22.11.2018 05:00:00 8,1 5,7 21 11 41 22 E 1011,2 - 0,2
22.11.2018 04:00:00 7,7 5,5 14 8 41 22 ESE 1012,0 - 0,6
22.11.2018 03:00:00 8,1 4,3 17 9 59 32 ESE 1012,2 - 0,0
22.11.2018 02:00:00 8,0 3,8 21 11 56 31 ESE 1011,9 - 0,0
22.11.2018 01:00:00 7,8 3,1 21 12 59 32 ESE 1012,2 - 0,0
22.11.2018 00:00:00 7,8 2,0 26 14 76 41 ESE 1011,9 - 0,0
21.11.2018 23:00:00 7,9 1,5 29 16 67 36 E 1012,0 - 0,0
21.11.2018 22:00:00 7,9 1,9 27 14 66 36 E 1012,2 - 0,0
21.11.2018 21:00:00 8,1 1,0 24 13 59 32 E 1011,9 - 0,0
21.11.2018 20:00:00 8,4 0,1 28 15 61 33 ESE 1011,8 - 0,0
21.11.2018 19:00:00 8,6 1,0 26 14 59 32 ESE 1011,6 - 0,0
21.11.2018 18:00:00 8,7 1,4 23 12 62 33 ESE 1011,2 - 0,0
21.11.2018 17:00:00 8,8 2,4 24 13 59 32 ESE 1010,8 - 0,0
21.11.2018 16:00:00 8,8 2,8 33 18 60 32 SE 1010,3 20 0,0
21.11.2018 15:00:00 9,4 2,7 37 20 60 33 SE 1009,9 - 0,0
21.11.2018 14:00:00 10,1 4,0 40 21 61 33 SE 1009,6 - 0,0
21.11.2018 13:00:00 10,4 4,5 44 24 61 33 SSE 1009,5 - 0,0
21.11.2018 12:00:00 10,1 4,0 34 18 45 24 SSE 1009,2 - 0,0
21.11.2018 11:00:00 9,7 4,1 19 10 40 21 SE 1009,0 - 0,0
21.11.2018 10:00:00 9,0 3,8 29 16 59 32 SSE 1008,3 20 0,2
21.11.2018 09:00:00 9,2 1,8 21 11 36 19 SSE 1007,7 - 0,0
21.11.2018 08:00:00 8,7 1,6 18 10 29 15 SSE 1007,1 - 0,0
21.11.2018 07:00:00 8,4 1,1 15 8 26 14 S 1006,7 20 0,0
21.11.2018 06:00:00 8,3 0,7 17 9 29 16 S 1006,2 - 0,0
21.11.2018 05:00:00 8,1 0,3 20 11 35 19 S 1006,0 - 0,0
21.11.2018 04:00:00 7,9 1,1 21 11 34 18 SSW 1005,6 - 0,0
21.11.2018 03:00:00 7,4 -0,1 21 12 32 17 S 1005,5 - 0,0
21.11.2018 02:00:00 7,0 0,4 16 8 26 14 SSW 1005,5 - 0,0
21.11.2018 01:00:00 6,6 -0,9 17 9 25 14 S 1005,5 - 0,0
21.11.2018 00:00:00 6,2 -0,8 14 7 23 13 S 1005,5 - 0,0
20.11.2018 23:00:00 6,0 -1,2 8 4 19 11 SW 1005,5 - 0,0
20.11.2018 22:00:00 5,5 -1,0 10 5 23 13 SSW 1005,3 - 0,0
20.11.2018 21:00:00 3,3 -1,7 5 3 9 5 E 1004,9 - 0,0
20.11.2018 20:00:00 3,2 -2,5 5 3 7 4 NNE 1004,8 - 0,0
20.11.2018 19:00:00 3,5 -2,3 4 2 5 3 NNE 1004,5 20 0,0
20.11.2018 18:00:00 4,1 -1,5 2 1 6 3 NE 1004,2 - 0,0
20.11.2018 17:00:00 5,6 -1,3 3 2 11 6 NE 1003,9 - 0,0
20.11.2018 16:00:00 5,7 -1,5 7 4 15 8 NNW 1003,8 18 0,0
20.11.2018 15:00:00 5,3 -1,4 11 6 19 10 N 1003,7 - 0,0
20.11.2018 14:00:00 6,3 -0,9 11 6 22 12 N 1003,9 - 0,0
20.11.2018 13:00:00 6,3 -0,5 11 6 27 15 NE 1004,3 - 0,0
20.11.2018 12:00:00 5,8 0,3 13 7 31 17 NNE 1004,8 - 0,0
20.11.2018 11:00:00 5,4 0,9 18 10 28 15 NE 1004,9 - 0,0
20.11.2018 10:00:00 3,2 0,3 8 4 13 7 N 1004,9 20 0,0
20.11.2018 09:00:00 2,7 0,6 3 2 22 12 E 1005,1 - 0,0
20.11.2018 08:00:00 2,2 0,3 16 9 29 16 NNE 1005,0 - 0,0
20.11.2018 07:00:00 2,6 0,5 23 12 34 19 NNE 1005,2 - 0,0
20.11.2018 06:00:00 3,0 0,4 16 8 29 16 NE 1005,2 - 0,0
20.11.2018 05:00:00 3,3 0,7 18 10 33 18 NNE 1005,7 - 0,0
20.11.2018 04:00:00 3,6 0,5 20 11 36 19 NE 1006,3 - 0,0
20.11.2018 03:00:00 3,4 0,4 18 10 34 18 NE 1006,7 - 0,0
20.11.2018 02:00:00 4,5 0,8 18 10 33 18 NE 1007,1 - 0,0
20.11.2018 01:00:00 4,0 0,1 21 11 44 24 ENE 1007,6 - 0,0
20.11.2018 00:00:00 4,2 -0,6 22 12 36 19 NE 1008,0 - 0,0
19.11.2018 23:00:00 4,3 -0,7 25 13 45 25 NE 1008,6 - 0,0
19.11.2018 22:00:00 4,0 -1,0 25 13 61 33 ENE 1009,3 - 0,0
19.11.2018 21:00:00 4,3 -1,1 41 22 63 34 ENE 1009,4 - 0,0
19.11.2018 20:00:00 4,2 -1,6 37 20 62 33 ENE 1009,7 - 0,0
19.11.2018 19:00:00 4,9 -2,0 29 15 58 31 NE 1009,4 - 0,0
19.11.2018 18:00:00 5,9 -3,0 35 19 58 32 NE 1009,4 - 0,0
19.11.2018 17:00:00 6,8 -2,6 29 16 55 30 NE 1009,1 - 0,0
19.11.2018 16:00:00 7,5 -2,0 28 15 57 31 NE 1009,3 15 0,0
19.11.2018 15:00:00 7,9 -2,2 35 19 63 34 ENE 1009,5 - 0,0
19.11.2018 14:00:00 7,9 -1,1 42 23 63 34 ENE 1010,6 - 0,0
19.11.2018 13:00:00 7,5 -0,5 41 22 60 32 ENE 1011,1 15 0,0
19.11.2018 12:00:00 6,9 0,1 33 18 58 31 ENE 1012,0 - 0,0
19.11.2018 11:00:00 6,0 0,1 40 22 64 35 ENE 1012,3 - 0,0
19.11.2018 10:00:00 5,5 0,7 42 23 60 32 ENE 1012,4 10 0,0
19.11.2018 09:00:00 4,8 0,9 35 19 55 30 ENE 1012,6 - 0,0
19.11.2018 08:00:00 4,5 1,2 35 19 58 31 ENE 1012,8 - 0,0
19.11.2018 07:00:00 5,0 1,8 22 12 48 26 ENE 1013,0 - 0,0
19.11.2018 06:00:00 5,6 2,2 29 16 47 25 E 1013,3 - 0,0
19.11.2018 05:00:00 5,6 1,9 30 16 53 29 E 1013,5 - 0,0
19.11.2018 04:00:00 5,8 2,1 30 16 55 30 E 1013,8 - 0,0
19.11.2018 03:00:00 5,6 2,4 31 17 55 30 E 1014,1 - 0,0
19.11.2018 02:00:00 5,9 2,5 33 18 61 33 ENE 1014,4 - 0,0
19.11.2018 01:00:00 5,9 2,5 35 19 69 37 ENE 1014,7 - 0,0
19.11.2018 00:00:00 5,9 2,5 36 19 56 30 ENE 1014,9 - 0,0
18.11.2018 23:00:00 6,4 2,5 32 18 63 34 E 1015,4 - 0,0
18.11.2018 22:00:00 6,7 2,8 36 19 59 32 E 1015,6 - 0,0
18.11.2018 21:00:00 7,1 3,0 40 22 68 37 ENE 1015,5 - 0,0
18.11.2018 20:00:00 7,5 3,4 43 23 72 39 ENE 1015,6 - 0,0
18.11.2018 19:00:00 7,9 3,5 39 21 64 34 ENE 1015,4 10 0,0
18.11.2018 18:00:00 8,3 3,5 42 23 63 34 ENE 1015,0 - 0,0
18.11.2018 17:00:00 9,0 3,6 40 22 60 33 NE 1014,5 - 0,0
18.11.2018 16:00:00 10,0 4,4 35 19 55 30 NE 1015,0 - 0,0
18.11.2018 15:00:00 10,1 4,9 35 19 57 31 ENE 1015,3 - 0,0
18.11.2018 14:00:00 9,8 4,8 34 18 62 34 ENE 1016,1 - 0,0
18.11.2018 13:00:00 9,4 5,2 34 19 54 29 ENE 1017,0 10 0,0
18.11.2018 12:00:00 8,7 5,3 35 19 57 31 ENE 1017,5 - 0,0
18.11.2018 11:00:00 8,3 5,4 33 18 56 30 ENE 1017,6 - 0,0
18.11.2018 10:00:00 8,0 5,6 36 19 53 29 ENE 1017,5 10 0,0
18.11.2018 09:00:00 6,8 4,9 33 18 53 28 ENE 1017,4 - 0,0
18.11.2018 08:00:00 6,3 4,6 31 17 59 32 ENE 1016,8 - 0,0
18.11.2018 07:00:00 6,4 4,7 35 19 58 32 E 1016,5 6 0,0
18.11.2018 06:00:00 6,7 4,7 35 19 58 31 E 1016,1 - 0,0
18.11.2018 05:00:00 6,7 4,5 36 19 67 36 E 1015,9 - 0,0
18.11.2018 04:00:00 6,5 4,2 34 19 64 34 E 1016,2 - 0,0
18.11.2018 03:00:00 6,4 3,9 29 16 58 31 E 1016,4 - 0,0
18.11.2018 02:00:00 6,1 3,3 31 17 54 29 E 1016,4 - 0,0
18.11.2018 01:00:00 5,9 3,1 31 17 62 34 E 1017,1 - 0,0
18.11.2018 00:00:00 6,2 3,0 38 21 64 34 E 1017,8 - 0,0
17.11.2018 23:00:00 6,0 3,0 41 22 71 39 E 1017,8 - 0,0
17.11.2018 22:00:00 6,3 3,6 39 21 66 36 E 1017,7 - 0,0
17.11.2018 21:00:00 6,1 3,6 35 19 62 33 E 1017,4 - 0,0
17.11.2018 20:00:00 6,0 4,0 32 17 63 34 E 1017,4 - 0,0
17.11.2018 19:00:00 6,4 4,7 34 18 55 30 E 1017,3 - 0,0
17.11.2018 18:00:00 6,5 5,3 26 14 53 29 E 1017,5 - 0,0
17.11.2018 17:00:00 7,6 7,2 34 18 53 28 E 1017,5 - 0,0
17.11.2018 16:00:00 7,9 7,5 26 14 52 28 E 1017,9 - 0,0
17.11.2018 15:00:00 8,3 7,9 29 16 54 29 E 1017,9 - 0,0
17.11.2018 14:00:00 8,2 7,8 31 17 49 26 E 1018,5 - 0,0
17.11.2018 13:00:00 8,4 8,1 27 15 42 23 E 1019,0 - 0,0
17.11.2018 12:00:00 8,4 8,1 27 15 42 23 E 1019,6 - 0,0
17.11.2018 11:00:00 9,0 8,7 17 9 40 22 E 1020,2 - 0,0
17.11.2018 10:00:00 9,1 8,8 31 17 48 26 E 1020,0 - 0,0
17.11.2018 09:00:00 9,3 9,0 29 16 48 26 E 1019,8 - 0,0
17.11.2018 08:00:00 9,6 9,3 29 16 51 28 E 1019,4 - 0,0
17.11.2018 07:00:00 9,6 9,3 33 18 48 26 E 1019,2 - 0,0
17.11.2018 06:00:00 9,9 9,6 31 17 50 27 E 1019,2 - 0,0
17.11.2018 05:00:00 10,1 9,8 29 16 49 26 E 1019,2 - 0,0
17.11.2018 04:00:00 10,2 9,9 31 17 53 28 E 1019,7 - 0,0
17.11.2018 03:00:00 10,6 10,3 27 14 50 27 E 1019,8 - 0,0
17.11.2018 02:00:00 10,6 10,3 28 15 47 25 E 1019,9 - 0,0
17.11.2018 01:00:00 10,8 10,5 29 16 49 27 E 1020,2 - 0,0
17.11.2018 00:00:00 10,7 10,4 33 18 48 26 E 1020,3 - 0,0
16.11.2018 23:00:00 10,7 10,4 26 14 48 26 E 1020,2 - 0,0
16.11.2018 22:00:00 11,2 10,9 29 15 48 26 E 1020,2 - 0,0
16.11.2018 21:00:00 11,5 11,2 29 15 46 25 E 1020,1 - 0,0
16.11.2018 20:00:00 11,8 11,3 27 14 43 23 E 1020,3 - 0,0
16.11.2018 19:00:00 11,8 11,3 26 14 42 23 ENE 1020,1 - 0,0
16.11.2018 18:00:00 12,2 11,3 23 12 38 21 ENE 1020,0 - 0,0
16.11.2018 17:00:00 13,8 11,8 23 12 42 23 E 1019,9 - 0,0
16.11.2018 16:00:00 13,5 12,2 23 12 43 23 E 1020,2 4,0 0,0
16.11.2018 15:00:00 13,0 12,1 21 12 47 26 E 1020,4 - 0,0
16.11.2018 14:00:00 12,3 11,8 22 12 47 25 E 1020,6 - 0,0
16.11.2018 13:00:00 12,2 11,7 19 10 47 26 E 1021,2 - 0,0
16.11.2018 12:00:00 12,0 11,7 24 13 47 26 E 1021,5 - 0,0

tt = Température de l'air
td = dewpoint
ff = Vitesse du vent
fx = gusts
dd = Direction du vent
ppp = reduced air pressure
vv = visibility
rr = Quantités de précipitations

stations d'obs. à proximité